Terminal Aerodrome Forecast
Issued by NWS

Home | Current Version | Previous Version | Text Only | Print | Product List | Glossary On
Versions: 1 2 3 4 5 6 7 8 9 10 11 12 13 14
000
FTUS43 KSGF 270500
TAFJLN
TAF
KJLN 270520Z 2706/2806 22014KT P6SM SCT250 WS015/25045KT
     FM271300 26008KT P6SM SCT200
     FM271600 35010KT P6SM SKC=

USA.gov is the U.S. government's official web portal to all federal, state and local government web resources and services.